Location: Donzy-le-Pr�
(47.3659°N, 3.1107°E)
Time: 08:13:06
(UTC+00:00)

Ariane Rocket - Pass Details

Date: 03 March 2021
Orbit: 759 x 771 km, 98.7° (Epoch: 14 April)

Event Time Altitude Azimuth Distance (km) Brightness Sun altitude
Exits shadow 20:22:15 32° 212° (SSW) 1,311 4.2 -28.4°
Maximum altitude 20:24:07 45° 261° (W) 1,047 3.9 -28.7°
Drops below altitude 10° 20:29:02 10° 334° (NNW) 2,323 6.1 -29.5°
Sets 20:31:27 0° 341° (NNW) 3,253 6.9 -29.8°
